VA3XLC Weather Reports


time (UTC)temp
C
wind
direction
speed
KPH
gust
KPH
rain 1hr
cm
rain 24hr
cm
rain mn
cm
humidity
%
barometer
mb
20260902065032 22 123 1.6 3.2 0.00 0.00 0.00 97 981.9
20260902064532 22 0 0.0 0.0 0.00 0.00 0.00 97 981.9
20260902064032 22 0 0.0 0.0 0.00 0.00 0.00 97 981.8
20260902063532 22 0 0.0 0.0 0.00 0.00 0.00 97 982.0
20260902063031 22 0 0.0 0.0 0.00 0.00 0.00 97 982.1
20260902062531 22 0 0.0 0.0 0.00 0.00 0.00 97 982.0
20260902062031 22 134 1.6 3.2 0.00 0.00 0.00 97 982.0
20260902061009 22 0 0.0 0.0 0.00 0.00 0.00 96 982.1
20260902060509 22 0 0.0 0.0 0.00 0.00 0.00 96 982.2
20260902060009 22 135 1.6 3.2 0.00 0.00 0.00 96 982.1
20260902054947 22 136 1.6 1.6 0.00 0.00 0.00 96 982.2
20260902054447 22 0 0.0 0.0 0.00 0.00 0.00 96 982.3
20260902053947 22 133 1.6 3.2 0.00 0.00 0.00 96 982.2
20260902053446 22 0 0.0 0.0 0.00 0.00 0.00 96 982.3
20260902052946 22 0 0.0 0.0 0.00 0.00 0.00 96 982.3
20260902052446 22 0 0.0 0.0 0.00 0.00 0.00 96 982.3
20260902051424 22 0 0.0 0.0 0.00 0.00 0.00 96 982.2
20260902050403 22 0 0.0 0.0 0.00 0.00 0.00 96 982.1
20260902045902 22 0 0.0 0.0 0.00 0.00 0.00 96 982.1
20260902045402 22 139 1.6 3.2 0.00 0.00 0.00 96 982.0
20260902044902 22 0 0.0 0.0 0.00 0.00 0.00 95 982.1
20260902044402 22 0 0.0 0.0 0.00 0.00 0.00 95 982.1
20260902043901 23 0 0.0 0.0 0.00 0.00 0.00 95 982.2
20260902043401 23 0 0.0 0.0 0.00 0.00 0.00 95 982.2
20260902042901 23 0 0.0 0.0 0.00 0.00 0.00 95 982.2
20260902041839 22 151 3.2 3.2 0.00 0.00 0.00 95 982.1
20260902041339 22 158 1.6 3.2 0.00 0.00 0.00 95 982.1
20260902040839 23 0 0.0 0.0 0.00 0.00 0.00 95 982.1
20260902035818 23 0 0.0 0.0 0.00 0.00 0.00 95 981.9
20260902035317 23 0 0.0 0.0 0.00 0.00 0.00 95 982.0
20260902034817 23 0 0.0 0.0 0.00 0.00 0.00 95 982.0
20260902033756 23 162 3.2 3.2 0.00 0.00 0.00 95 982.0
20260902033255 23 0 0.0 0.0 0.00 0.00 0.00 95 982.0
20260902032755 23 0 0.0 0.0 0.00 0.00 0.00 95 982.0
20260902032255 23 0 0.0 0.0 0.00 0.00 0.00 95 982.0
20260902031754 23 0 0.0 0.0 0.00 0.00 0.00 95 981.9
20260902031254 23 0 0.0 0.0 0.00 0.00 0.00 95 981.9
20260902030753 23 0 0.0 0.0 0.00 0.00 0.00 95 982.0
20260902030253 23 220 1.6 3.2 0.00 0.00 0.00 95 982.0
20260902025753 23 161 1.6 3.2 0.00 0.00 0.00 95 982.0
20260902025252 23 0 0.0 0.0 0.00 0.00 0.00 95 982.0
20260902024751 23 0 0.0 0.0 0.00 0.00 0.00 94 982.0
20260902024251 23 146 3.2 3.2 0.00 0.00 0.00 95 981.9
20260902023751 23 138 3.2 4.8 0.00 0.00 0.00 95 981.9
20260902022730 23 0 0.0 0.0 0.00 0.00 0.00 95 982.0
20260902022229 23 0 0.0 0.0 0.00 0.00 0.00 95 981.9
20260902021729 23 0 0.0 0.0 0.00 0.00 0.00 95 981.9
20260902021229 23 0 0.0 0.0 0.00 0.00 0.00 95 981.9
20260902020729 23 0 0.0 0.0 0.00 0.00 0.00 95 981.9
20260902020228 23 175 3.2 3.2 0.00 0.00 0.00 94 981.8
20260902015728 24 0 0.0 0.0 0.00 0.00 0.00 94 981.8
20260902015227 24 0 0.0 0.0 0.00 0.00 0.00 94 981.8
20260902014727 24 0 0.0 0.0 0.00 0.00 0.00 94 981.7
20260902014227 24 0 0.0 0.0 0.00 0.00 0.00 94 981.8
20260902013726 24 0 0.0 0.0 0.00 0.00 0.00 94 981.7
20260902012143 24 0 0.0 0.0 0.00 0.00 0.00 94 981.5
20260902011121 25 0 0.0 0.0 0.00 0.00 0.00 93 981.4
20260902010620 25 166 3.2 4.8 0.00 0.00 0.00 93 981.2
20260902010120 25 183 3.2 3.2 0.00 0.00 0.00 93 981.2
20260902005619 25 139 1.6 3.2 0.00 0.00 0.00 93 981.2
20260902005119 25 55 1.6 3.2 0.00 0.00 0.00 93 981.1
20260902003536 25 0 0.0 0.0 0.00 0.00 0.00 92 981.1
20260902003036 25 146 1.6 3.2 0.00 0.00 0.00 92 980.9
20260902002536 26 208 1.6 1.6 0.00 0.00 0.00 91 981.0
20260902002036 26 0 0.0 0.0 0.00 0.00 0.00 91 981.1
20260902001014 26 147 3.2 4.8 0.00 0.00 0.00 90 981.2
20260902000514 26 191 1.6 1.6 0.00 0.00 0.00 90 981.2
20260901235452 26 203 1.6 3.2 0.00 0.00 0.00 89 981.2
20260901234952 26 244 3.2 3.2 0.00 0.00 0.00 88 981.2
20260901234451 27 239 3.2 4.8 0.00 0.00 0.00 88 981.3
20260901233951 27 281 1.6 3.2 0.00 0.00 0.00 88 981.3
20260901233451 27 189 3.2 4.8 0.00 0.00 0.00 87 981.3
20260901232951 27 169 1.6 4.8 0.00 0.00 0.00 86 981.3
20260901232450 28 202 1.6 3.2 0.00 0.00 0.00 86 981.2
20260901231949 28 219 1.6 3.2 0.00 0.00 0.00 86 981.3
20260901231449 28 255 4.8 4.8 0.00 0.00 0.00 85 981.3
20260901230427 29 274 3.2 8.0 0.00 0.00 0.00 82 981.4
20260901225926 29 215 4.8 6.4 0.00 0.00 0.00 81 981.4
20260901225426 29 260 1.6 3.2 0.00 0.00 0.00 82 981.2
20260901224926 29 181 4.8 6.4 0.00 0.00 0.00 81 981.2
20260901224426 29 267 1.6 4.8 0.00 0.00 0.00 80 981.2
20260901223925 29 238 6.4 9.7 0.00 0.00 0.00 81 981.2
20260901223425 30 197 3.2 4.8 0.00 0.00 0.00 80 981.2
20260901222925 30 259 4.8 6.4 0.00 0.00 0.00 80 981.2
20260901222425 29 253 4.8 9.7 0.00 0.00 0.00 81 981.2
20260901221925 29 272 8.0 11.3 0.00 0.00 0.00 81 981.2
20260901221424 30 265 9.7 14.5 0.00 0.00 0.00 81 981.2
20260901220924 29 247 6.4 9.7 0.00 0.00 0.00 81 981.1
20260901220424 29 272 8.0 14.5 0.00 0.00 0.00 82 981.1
20260901215402 30 275 12.9 17.7 0.00 0.00 0.00 80 981.1
20260901214902 30 274 8.0 12.9 0.00 0.00 0.00 77 981.2
20260901214401 30 235 3.2 4.8 0.00 0.00 0.00 78 981.1
20260901213340 30 191 4.8 4.8 0.00 0.00 0.00 76 981.1
20260901212840 30 212 3.2 4.8 0.00 0.00 0.00 76 981.1
20260901212340 31 173 3.2 4.8 0.00 0.00 0.00 74 981.1
20260901211839 31 145 3.2 4.8 0.00 0.00 0.00 74 981.0
20260901210818 31 141 4.8 6.4 0.00 0.00 0.00 75 981.0
20260901210318 31 144 1.6 4.8 0.00 0.00 0.00 75 981.0
20260901205817 31 190 3.2 4.8 0.00 0.00 0.00 74 981.0
20260901205317 30 228 1.6 4.8 0.00 0.00 0.00 75 981.0
20260901204817 31 156 1.6 4.8 0.00 0.00 0.00 75 981.0
20260901204317 31 262 3.2 4.8 0.00 0.00 0.00 74 981.1
20260901203816 31 304 1.6 3.2 0.00 0.00 0.00 74 981.1
20260901203315 30 264 3.2 4.8 0.00 0.00 0.00 74 981.1
20260901202814 30 110 4.8 6.4 0.00 0.00 0.00 76 981.1
20260901202314 30 49 3.2 4.8 0.00 0.00 0.00 73 981.1
20260901201814 30 265 4.8 6.4 0.00 0.00 0.00 73 981.1
20260901201314 30 259 3.2 4.8 0.00 0.00 0.00 73 981.1
20260901200813 30 101 1.6 3.2 0.00 0.00 0.00 75 981.1
20260901200313 30 258 1.6 3.2 0.00 0.00 0.00 75 981.1
20260901195252 30 52 3.2 6.4 0.00 0.00 0.00 76 981.3
20260901194751 30 315 8.0 11.3 0.00 0.00 0.00 77 981.3
20260901194251 30 264 3.2 6.4 0.00 0.00 0.00 76 981.3
20260901193751 30 285 3.2 4.8 0.00 0.00 0.00 75 981.3
20260901193250 30 248 3.2 4.8 0.00 0.00 0.00 75 981.3
20260901192750 30 318 6.4 8.0 0.00 0.00 0.00 75 981.3
20260901192250 30 294 1.6 4.8 0.00 0.00 0.00 75 981.4
20260901191749 30 266 1.6 4.8 0.00 0.00 0.00 75 981.5
20260901191249 30 111 1.6 4.8 0.00 0.00 0.00 77 981.6
20260901190749 29 242 1.6 4.8 0.00 0.00 0.00 79 981.6
20260901190248 29 346 3.2 4.8 0.00 0.00 0.00 78 981.7
20260901185748 29 293 4.8 8.0 0.00 0.00 0.00 77 981.8
20260901184726 28 283 6.4 11.3 0.00 0.00 0.00 78 981.8
20260901184226 28 299 4.8 6.4 0.00 0.00 0.00 79 981.8
20260901183725 28 344 3.2 6.4 0.00 0.00 0.00 80 981.8
20260901183225 28 321 8.0 12.9 0.00 0.00 0.00 80 981.8
20260901182724 28 274 8.0 9.7 0.00 0.00 0.00 81 981.8
20260901182224 28 303 6.4 11.3 0.00 0.00 0.00 81 981.8
20260901181723 28 314 8.0 12.9 0.00 0.00 0.00 80 981.9
20260901180702 28 302 8.0 12.9 0.00 0.00 0.00 81 981.8
20260901180202 28 328 6.4 11.3 0.00 0.00 0.00 80 981.8
20260901175701 28 276 9.7 12.9 0.00 0.00 0.00 81 981.7
20260901175201 28 318 4.8 12.9 0.00 0.00 0.00 80 981.7
20260901174700 28 276 3.2 4.8 0.00 0.00 0.00 80 981.7
20260901174200 28 267 6.4 9.7 0.00 0.00 0.00 81 981.8
20260901173700 28 299 8.0 11.3 0.00 0.00 0.00 79 981.8
20260901173200 28 295 8.0 11.3 0.00 0.00 0.00 80 981.7
20260901172700 28 306 8.0 11.3 0.00 0.00 0.00 80 981.7
20260901172159 28 283 8.0 11.3 0.00 0.00 0.00 81 981.8
20260901170617 28 305 9.7 12.9 0.00 0.00 0.00 80 981.9
20260901170117 28 280 11.3 16.1 0.00 0.00 0.00 80 981.9
20260901165616 28 275 11.3 14.5 0.00 0.00 0.00 79 981.8
20260901165116 27 325 4.8 11.3 0.00 0.00 0.00 80 981.9
20260901164616 27 274 11.3 19.3 0.00 0.00 0.00 80 982.0
20260901164116 27 309 8.0 11.3 0.00 0.00 0.00 80 982.0
20260901163616 27 280 9.7 11.3 0.00 0.00 0.00 80 982.0
20260901163115 28 269 11.3 12.9 0.00 0.00 0.00 79 982.0
20260901162053 28 323 9.7 14.5 0.00 0.00 0.00 78 981.9
20260901161553 27 310 3.2 9.7 0.00 0.00 0.00 80 981.9
20260901161053 27 303 6.4 9.7 0.00 0.00 0.00 80 982.0
20260901160555 27 322 3.2 8.0 0.00 0.00 0.00 80 982.0
20260901160052 27 271 8.0 12.9 0.00 0.00 0.00 81 982.0
20260901155552 27 280 8.0 12.9 0.00 0.00 0.00 81 982.0
20260901155052 27 308 6.4 14.5 0.00 0.00 0.00 80 982.1
20260901154551 27 284 8.0 12.9 0.00 0.00 0.00 81 982.2
20260901154050 26 274 6.4 8.0 0.00 0.00 0.00 82 982.2
20260901153549 26 293 8.0 11.3 0.00 0.00 0.00 83 982.2
20260901153049 26 269 9.7 12.9 0.00 0.00 0.00 82 982.2
20260901152549 26 281 3.2 6.4 0.00 0.00 0.00 82 982.2
20260901151527 26 315 9.7 14.5 0.00 0.00 0.00 83 982.2
20260901151027 26 319 9.7 14.5 0.00 0.00 0.00 83 982.3
20260901150527 26 306 4.8 6.4 0.00 0.00 0.00 85 982.3
20260901150026 26 303 6.4 9.7 0.00 0.00 0.00 85 982.3
20260901143922 25 299 6.4 8.0 0.00 0.00 0.00 86 982.1
20260901142339 25 308 6.4 8.0 0.00 0.00 0.00 87 982.2
20260901141839 25 282 3.2 4.8 0.00 0.00 0.00 89 982.3
20260901140818 25 319 4.8 8.0 0.00 0.00 0.00 89 982.3
20260901140317 24 325 6.4 11.3 0.00 0.00 0.00 89 982.2
20260901135817 24 324 3.2 6.4 0.00 0.00 0.00 90 982.2
20260901135317 24 275 4.8 9.7 0.00 0.00 0.00 91 982.1
20260901134817 24 328 3.2 4.8 0.00 0.00 0.00 91 982.3
20260901134316 24 307 4.8 8.0 0.00 0.00 0.00 91 982.3
20260901133816 23 343 1.6 4.8 0.00 0.00 0.00 92 982.3
20260901133316 23 307 6.4 9.7 0.00 0.00 0.00 92 982.3
20260901132816 23 269 3.2 4.8 0.00 0.00 0.00 93 982.4
20260901132316 23 333 3.2 6.4 0.00 0.00 0.00 93 982.5
20260901131815 23 308 4.8 6.4 0.00 0.00 0.00 93 982.6
20260901131315 23 300 3.2 8.0 0.00 0.00 0.00 93 982.6
20260901130815 23 319 6.4 8.0 0.00 0.00 0.00 93 982.7
20260901130314 23 345 4.8 8.0 0.00 0.00 0.00 93 982.7
20260901125814 23 284 4.8 6.4 0.00 0.00 0.00 93 982.7
20260901125314 23 337 4.8 8.0 0.00 0.00 0.00 92 982.6
20260901124814 23 351 4.8 6.4 0.00 0.00 0.00 93 982.6
20260901124314 23 346 3.2 6.4 0.00 0.00 0.00 93 982.6
20260901123814 23 243 4.8 6.4 0.00 0.00 0.00 93 982.5
20260901123313 23 250 3.2 4.8 0.00 0.00 0.00 94 982.6
20260901122813 23 330 3.2 4.8 0.00 0.00 0.00 94 982.6
20260901122313 22 244 3.2 3.2 0.00 0.00 0.00 94 982.6
20260901121812 22 258 3.2 4.8 0.00 0.00 0.00 94 982.5
20260901121311 22 284 3.2 4.8 0.00 0.00 0.00 94 982.5
20260901120811 22 254 1.6 3.2 0.00 0.00 0.00 95 982.4
20260901120311 22 279 1.6 3.2 0.00 0.00 0.00 95 982.4
20260901115811 22 261 4.8 6.4 0.00 0.00 0.00 95 982.4
20260901115310 22 277 3.2 4.8 0.00 0.00 0.00 95 982.4
20260901114810 21 268 3.2 4.8 0.00 0.00 0.00 95 982.2
20260901114310 21 324 3.2 4.8 0.00 0.00 0.00 95 982.2
20260901113810 21 261 1.6 4.8 0.00 0.00 0.00 95 982.2
20260901113309 21 243 1.6 3.2 0.00 0.00 0.00 95 982.2
20260901112809 21 236 1.6 4.8 0.00 0.00 0.00 95 982.2
20260901112309 21 276 1.6 4.8 0.00 0.00 0.00 95 982.1
20260901111247 21 310 1.6 1.6 0.00 0.00 0.00 95 982.0
20260901110746 21 0 0.0 0.0 0.00 0.00 0.00 95 982.0
20260901110246 21 252 1.6 3.2 0.00 0.00 0.00 95 981.9
20260901105746 21 305 3.2 6.4 0.00 0.00 0.00 95 981.9
20260901105246 21 259 1.6 3.2 0.00 0.00 0.00 95 981.8
20260901104746 21 254 1.6 4.8 0.00 0.00 0.00 95 981.8
20260901104245 21 290 1.6 4.8 0.00 0.00 0.00 95 981.8
20260901103745 21 251 1.6 3.2 0.00 0.00 0.00 95 981.8
20260901103245 21 271 3.2 4.8 0.00 0.00 0.00 95 981.7
20260901102745 21 293 1.6 3.2 0.00 0.00 0.00 95 981.7
20260901101723 21 275 3.2 6.4 0.00 0.00 0.00 95 981.6
20260901101223 21 273 3.2 6.4 0.00 0.00 0.00 95 981.7
20260901100723 21 308 3.2 6.4 0.00 0.00 0.00 95 981.6
20260901100222 21 266 3.2 4.8 0.00 0.00 0.00 95 981.7
20260901095722 21 255 1.6 3.2 0.00 0.00 0.00 95 981.6
20260901095222 21 258 1.6 3.2 0.00 0.00 0.00 95 981.6
20260901094722 21 280 3.2 4.8 0.00 0.00 0.00 95 981.6
20260901094222 21 294 1.6 3.2 0.00 0.00 0.00 95 981.6
20260901093721 21 320 3.2 6.4 0.00 0.00 0.00 95 981.6
20260901093221 21 305 1.6 4.8 0.00 0.00 0.00 95 981.6
20260901092721 21 266 3.2 6.4 0.00 0.00 0.00 95 981.5
20260901092221 21 281 3.2 4.8 0.00 0.00 0.00 95 981.4
20260901091720 21 258 3.2 4.8 0.00 0.00 0.00 95 981.4
20260901091220 22 279 3.2 6.4 0.00 0.00 0.00 95 981.5
20260901090720 22 270 3.2 4.8 0.00 0.00 0.00 94 981.4
20260901090220 22 256 4.8 9.7 0.00 0.00 0.00 94 981.4
20260901085720 22 277 4.8 8.0 0.00 0.00 0.00 94 981.4
20260901085219 22 258 4.8 6.4 0.00 0.00 0.00 94 981.4
20260901084719 22 264 4.8 6.4 0.00 0.00 0.00 94 981.3
20260901083657 22 280 3.2 4.8 0.00 0.00 0.00 94 981.1
20260901083157 22 261 4.8 8.0 0.00 0.00 0.00 94 981.2
20260901082657 22 259 3.2 6.4 0.00 0.00 0.00 93 981.1
20260901082157 22 268 3.2 6.4 0.00 0.00 0.00 93 981.1
20260901081657 22 254 4.8 9.7 0.00 0.00 0.00 93 981.2
20260901081156 22 266 4.8 6.4 0.00 0.00 0.00 93 981.2
20260901080656 22 255 4.8 6.4 0.00 0.00 0.00 93 981.3
20260901080156 22 259 3.2 6.4 0.00 0.00 0.00 93 981.3
20260901075655 22 255 4.8 8.0 0.00 0.00 0.00 93 981.2
20260901075155 22 262 4.8 6.4 0.00 0.00 0.00 93 981.2
20260901074134 22 260 4.8 9.7 0.00 0.00 0.00 93 981.2
20260901073633 22 282 6.4 9.7 0.00 0.00 0.00 93 981.1
20260901072611 22 280 3.2 4.8 0.00 0.00 0.00 93 981.1
20260901071550 22 261 4.8 8.0 0.00 0.00 0.00 92 981.2
20260901071050 22 264 6.4 11.3 0.00 0.00 0.00 92 981.3
20260901065507 22 239 3.2 6.4 0.00 0.00 0.00 92 981.6